User: anonymous   Login
Location: Caribou
(46.8667°N, 68.0167°W)
Time: 12:05:44
(UTC-04:00)
Language:

SL-08 RB Rocket - Orbit

View from above orbital plane
View from above orbital plane
View from above satellite
View from above satellite

Ground track
Ground track

The orbit data is extracted from the following two-line orbital elements,

1 26387U 00033D   18173.73738706  .00000047  00000-0  16461-4 0  9996
2 26387  97.9205 232.4723 0025304 236.3998 234.6221 14.68394223962253
Epoch (UTC): 22 June 2018 17:41:50
Eccentricity: 0.0025304
inclination: 97.9205°
perigee height: 648 km
apogee height: 684 km
right ascension of ascending node: 232.4723°
argument of perigee: 236.3998°
revolutions per day: 14.68394223
mean anomaly at epoch: 234.6221°
orbit number at epoch: 96225

The dashed part of the orbit path shows where the satellite is in the earth's shadow,  

DLR